Year,Month,Day,Hour,Minute,Value (Times are PST for temperature in C)
2010,01,26,00,00,3.20
2010,01,26,00,01,3.20
2010,01,26,00,02,3.20
2010,01,26,00,03,3.10
2010,01,26,00,04,3.10
2010,01,26,00,05,3.00
2010,01,26,00,06,3.00
2010,01,26,00,07,2.90
2010,01,26,00,08,2.90
2010,01,26,00,09,2.80
2010,01,26,00,10,2.80
2010,01,26,00,11,2.80
2010,01,26,00,12,2.80
2010,01,26,00,13,2.90
2010,01,26,00,14,2.90
2010,01,26,00,15,2.90
2010,01,26,00,16,2.90
2010,01,26,00,17,2.90
2010,01,26,00,18,2.90
2010,01,26,00,19,2.90
2010,01,26,00,20,2.80
2010,01,26,00,21,2.80
2010,01,26,00,22,2.70
2010,01,26,00,23,2.70
2010,01,26,00,24,2.60
2010,01,26,00,25,2.60
2010,01,26,00,26,2.70
2010,01,26,00,27,2.70
2010,01,26,00,28,2.80
2010,01,26,00,29,2.90
2010,01,26,00,30,2.90
2010,01,26,00,31,2.90
2010,01,26,00,32,2.90
2010,01,26,00,33,2.90
2010,01,26,00,34,2.90
2010,01,26,00,35,2.90
2010,01,26,00,36,2.90
2010,01,26,00,37,2.90
2010,01,26,00,38,2.90
2010,01,26,00,39,2.90
2010,01,26,00,40,2.90
2010,01,26,00,41,2.90
2010,01,26,00,42,2.90
2010,01,26,00,43,2.80
2010,01,26,00,44,2.80
2010,01,26,00,45,2.80
2010,01,26,00,46,2.70
2010,01,26,00,47,2.70
2010,01,26,00,48,2.70
2010,01,26,00,49,2.70
2010,01,26,00,50,2.60
2010,01,26,00,51,2.60
2010,01,26,00,52,2.60
2010,01,26,00,53,2.60
2010,01,26,00,54,2.70
2010,01,26,00,55,2.70
2010,01,26,00,56,2.80
2010,01,26,00,57,2.80
2010,01,26,00,58,2.90
2010,01,26,00,59,2.90
2010,01,26,01,00,2.90
2010,01,26,01,01,2.90
2010,01,26,01,02,2.90
2010,01,26,01,03,2.90
2010,01,26,01,04,2.90
2010,01,26,01,05,2.90
2010,01,26,01,06,2.90
2010,01,26,01,07,2.80
2010,01,26,01,08,2.80
2010,01,26,01,09,2.80
2010,01,26,01,10,2.80
2010,01,26,01,11,2.70
2010,01,26,01,12,2.70
2010,01,26,01,13,2.70
2010,01,26,01,14,2.70
2010,01,26,01,15,2.60
2010,01,26,01,16,2.70
2010,01,26,01,17,2.70
2010,01,26,01,18,2.80
2010,01,26,01,19,2.80
2010,01,26,01,20,2.80
2010,01,26,01,21,2.90
2010,01,26,01,22,3.00
2010,01,26,01,23,3.10
2010,01,26,01,24,3.10
2010,01,26,01,25,3.20
2010,01,26,01,26,3.20
2010,01,26,01,27,3.20
2010,01,26,01,28,3.20
2010,01,26,01,29,3.20
2010,01,26,01,30,3.20
2010,01,26,01,31,3.20
2010,01,26,01,32,3.10
2010,01,26,01,33,3.10
2010,01,26,01,34,3.20
2010,01,26,01,35,3.20
2010,01,26,01,36,3.20
2010,01,26,01,37,3.30
2010,01,26,01,38,3.30
2010,01,26,01,39,3.30
2010,01,26,01,40,3.30
2010,01,26,01,41,3.30
2010,01,26,01,42,3.30
2010,01,26,01,43,3.30
2010,01,26,01,44,3.30
2010,01,26,01,45,3.30
2010,01,26,01,46,3.30
2010,01,26,01,47,3.20
2010,01,26,01,48,3.20
2010,01,26,01,49,3.10
2010,01,26,01,50,3.10
2010,01,26,01,51,3.10
2010,01,26,01,52,3.20
2010,01,26,01,53,3.20
2010,01,26,01,54,3.30
2010,01,26,01,55,3.30
2010,01,26,01,56,3.40
2010,01,26,01,57,3.50
2010,01,26,01,58,3.50
2010,01,26,01,59,3.50
2010,01,26,02,00,3.50
2010,01,26,02,01,3.50
2010,01,26,02,02,3.50
2010,01,26,02,03,3.50
2010,01,26,02,04,3.40
2010,01,26,02,05,3.40
2010,01,26,02,06,3.30
2010,01,26,02,07,3.30
2010,01,26,02,08,3.30
2010,01,26,02,09,3.20
2010,01,26,02,10,3.20
2010,01,26,02,11,3.20
2010,01,26,02,12,3.20
2010,01,26,02,13,3.10
2010,01,26,02,14,3.10
2010,01,26,02,15,3.10
2010,01,26,02,16,3.10
2010,01,26,02,17,3.10
2010,01,26,02,18,3.10
2010,01,26,02,19,3.10
2010,01,26,02,20,3.10
2010,01,26,02,21,3.20
2010,01,26,02,22,3.20
2010,01,26,02,23,3.20
2010,01,26,02,24,3.30
2010,01,26,02,25,3.40
2010,01,26,02,26,3.40
2010,01,26,02,27,3.40
2010,01,26,02,28,3.40
2010,01,26,02,29,3.40
2010,01,26,02,30,3.40
2010,01,26,02,31,3.40
2010,01,26,02,32,3.40
2010,01,26,02,33,3.30
2010,01,26,02,34,3.30
2010,01,26,02,35,3.30
2010,01,26,02,36,3.30
2010,01,26,02,37,3.40
2010,01,26,02,38,3.50
2010,01,26,02,39,3.70
2010,01,26,02,40,3.80
2010,01,26,02,41,3.90
2010,01,26,02,42,3.90
2010,01,26,02,43,3.90
2010,01,26,02,44,4.00
2010,01,26,02,45,4.00
2010,01,26,02,46,4.00
2010,01,26,02,47,4.00
2010,01,26,02,48,4.00
2010,01,26,02,49,4.00
2010,01,26,02,50,4.00
2010,01,26,02,51,4.00
2010,01,26,02,52,4.10
2010,01,26,02,53,4.10
2010,01,26,02,54,4.10
2010,01,26,02,55,4.20
2010,01,26,02,56,4.20
2010,01,26,02,57,4.20
2010,01,26,02,58,4.20
2010,01,26,02,59,4.20
2010,01,26,03,00,4.10
2010,01,26,03,01,3.90
2010,01,26,03,02,3.80
2010,01,26,03,03,3.60
2010,01,26,03,04,3.50
2010,01,26,03,05,3.30
2010,01,26,03,06,3.20
2010,01,26,03,07,3.20
2010,01,26,03,08,3.10
2010,01,26,03,09,3.10
2010,01,26,03,10,3.00
2010,01,26,03,11,3.00
2010,01,26,03,12,2.90
2010,01,26,03,13,2.90
2010,01,26,03,14,2.90
2010,01,26,03,15,2.90
2010,01,26,03,16,2.90
2010,01,26,03,17,2.90
2010,01,26,03,18,2.90
2010,01,26,03,19,2.90
2010,01,26,03,20,2.90
2010,01,26,03,21,2.90
2010,01,26,03,22,2.90
2010,01,26,03,23,2.90
2010,01,26,03,24,2.90
2010,01,26,03,25,3.00
2010,01,26,03,26,3.00
2010,01,26,03,27,3.20
2010,01,26,03,28,3.30
2010,01,26,03,29,3.40
2010,01,26,03,30,3.50
2010,01,26,03,31,3.60
2010,01,26,03,32,3.70
2010,01,26,03,33,3.80
2010,01,26,03,34,3.80
2010,01,26,03,35,3.90
2010,01,26,03,36,3.90
2010,01,26,03,37,3.90
2010,01,26,03,38,3.90
2010,01,26,03,39,3.90
2010,01,26,03,40,3.90
2010,01,26,03,41,3.90
2010,01,26,03,42,3.90
2010,01,26,03,43,3.90
2010,01,26,03,44,3.80
2010,01,26,03,45,3.80
2010,01,26,03,46,3.80
2010,01,26,03,47,3.80
2010,01,26,03,48,3.80
2010,01,26,03,49,3.80
2010,01,26,03,50,3.70
2010,01,26,03,51,3.70
2010,01,26,03,52,3.80
2010,01,26,03,53,3.80
2010,01,26,03,54,3.80
2010,01,26,03,55,3.80
2010,01,26,03,56,3.80
2010,01,26,03,57,3.80
2010,01,26,03,58,3.80
2010,01,26,03,59,3.90
2010,01,26,04,00,4.00
2010,01,26,04,01,4.10
2010,01,26,04,02,4.20
2010,01,26,04,03,4.20
2010,01,26,04,04,4.20
2010,01,26,04,05,4.30
2010,01,26,04,06,4.30
2010,01,26,04,07,4.30
2010,01,26,04,08,4.30
2010,01,26,04,09,4.30
2010,01,26,04,10,4.30
2010,01,26,04,11,4.30
2010,01,26,04,12,4.20
2010,01,26,04,13,4.10
2010,01,26,04,14,4.10
2010,01,26,04,15,4.00
2010,01,26,04,16,4.00
2010,01,26,04,17,3.90
2010,01,26,04,18,3.80
2010,01,26,04,19,3.80
2010,01,26,04,20,3.70
2010,01,26,04,21,3.60
2010,01,26,04,22,3.50
2010,01,26,04,23,3.40
2010,01,26,04,24,3.30
2010,01,26,04,25,3.30
2010,01,26,04,26,3.20
2010,01,26,04,27,3.10
2010,01,26,04,28,3.10
2010,01,26,04,29,3.00
2010,01,26,04,30,2.90
2010,01,26,04,31,2.90
2010,01,26,04,32,2.90
2010,01,26,04,33,2.90
2010,01,26,04,34,2.90
2010,01,26,04,35,2.80
2010,01,26,04,36,2.90
2010,01,26,04,37,2.90
2010,01,26,04,38,2.90
2010,01,26,04,39,2.90
2010,01,26,04,40,2.90
2010,01,26,04,41,2.90
2010,01,26,04,42,2.90
2010,01,26,04,43,2.90
2010,01,26,04,44,2.90
2010,01,26,04,45,2.90
2010,01,26,04,46,2.90
2010,01,26,04,47,2.90
2010,01,26,04,48,2.80
2010,01,26,04,49,2.80
2010,01,26,04,50,2.70
2010,01,26,04,51,2.70
2010,01,26,04,52,2.70
2010,01,26,04,53,2.70
2010,01,26,04,54,2.70
2010,01,26,04,55,2.70
2010,01,26,04,56,2.70
2010,01,26,04,57,2.70
2010,01,26,04,58,2.70
2010,01,26,04,59,2.80
2010,01,26,05,00,2.80
2010,01,26,05,01,2.90
2010,01,26,05,02,2.90
2010,01,26,05,03,3.00
2010,01,26,05,04,3.00
2010,01,26,05,05,3.00
2010,01,26,05,06,3.10
2010,01,26,05,07,3.10
2010,01,26,05,08,3.10
2010,01,26,05,09,3.10
2010,01,26,05,10,3.10
2010,01,26,05,11,3.00
2010,01,26,05,12,3.00
2010,01,26,05,13,3.00
2010,01,26,05,14,3.00
2010,01,26,05,15,3.00
2010,01,26,05,16,2.90
2010,01,26,05,17,2.90
2010,01,26,05,18,2.90
2010,01,26,05,19,2.90
2010,01,26,05,20,2.90
2010,01,26,05,21,3.00
2010,01,26,05,22,3.00
2010,01,26,05,23,3.10
2010,01,26,05,24,3.10
2010,01,26,05,25,3.10
2010,01,26,05,26,3.10
2010,01,26,05,27,3.00
2010,01,26,05,28,3.00
2010,01,26,05,29,3.00
2010,01,26,05,30,2.90
2010,01,26,05,31,2.90
2010,01,26,05,32,2.90
2010,01,26,05,33,2.80
2010,01,26,05,34,2.80
2010,01,26,05,35,2.70
2010,01,26,05,36,2.60
2010,01,26,05,37,2.60
2010,01,26,05,38,2.50
2010,01,26,05,39,2.40
2010,01,26,05,40,2.30
2010,01,26,05,41,2.30
2010,01,26,05,42,2.20
2010,01,26,05,43,2.20
2010,01,26,05,44,2.10
2010,01,26,05,45,2.10
2010,01,26,05,46,2.00
2010,01,26,05,47,2.00
2010,01,26,05,48,2.00
2010,01,26,05,49,2.10
2010,01,26,05,50,2.10
2010,01,26,05,51,2.20
2010,01,26,05,52,2.30
2010,01,26,05,53,2.40
2010,01,26,05,54,2.50
2010,01,26,05,55,2.60
2010,01,26,05,56,2.60
2010,01,26,05,57,2.60
2010,01,26,05,58,2.60
2010,01,26,05,59,2.60
2010,01,26,06,00,2.60
2010,01,26,06,01,2.60
2010,01,26,06,02,2.60
2010,01,26,06,03,2.50
2010,01,26,06,04,2.50
2010,01,26,06,05,2.40
2010,01,26,06,06,2.40
2010,01,26,06,07,2.30
2010,01,26,06,08,2.30
2010,01,26,06,09,2.20
2010,01,26,06,10,2.20
2010,01,26,06,11,2.10
2010,01,26,06,12,2.10
2010,01,26,06,13,2.00
2010,01,26,06,14,2.00
2010,01,26,06,15,2.00
2010,01,26,06,16,1.90
2010,01,26,06,17,1.90
2010,01,26,06,18,1.90
2010,01,26,06,19,1.80
2010,01,26,06,20,1.80
2010,01,26,06,21,1.70
2010,01,26,06,22,1.70
2010,01,26,06,23,1.70
2010,01,26,06,24,1.70
2010,01,26,06,25,1.60
2010,01,26,06,26,1.60
2010,01,26,06,27,1.60
2010,01,26,06,28,1.60
2010,01,26,06,29,1.70
2010,01,26,06,30,1.70
2010,01,26,06,31,1.60
2010,01,26,06,32,1.60
2010,01,26,06,33,1.70
2010,01,26,06,34,1.70
2010,01,26,06,35,1.70
2010,01,26,06,36,1.70
2010,01,26,06,37,1.70
2010,01,26,06,38,1.70
2010,01,26,06,39,1.80
2010,01,26,06,40,1.80
2010,01,26,06,41,1.80
2010,01,26,06,42,1.90
2010,01,26,06,43,1.90
2010,01,26,06,44,2.00
2010,01,26,06,45,2.10
2010,01,26,06,46,2.20
2010,01,26,06,47,2.20
2010,01,26,06,48,2.20
2010,01,26,06,49,2.30
2010,01,26,06,50,2.30
2010,01,26,06,51,2.30
2010,01,26,06,52,2.30
2010,01,26,06,53,2.30
2010,01,26,06,54,2.30
2010,01,26,06,55,2.20
2010,01,26,06,56,2.20
2010,01,26,06,57,2.10
2010,01,26,06,58,2.00
2010,01,26,06,59,2.00
2010,01,26,07,00,1.90
2010,01,26,07,01,1.80
2010,01,26,07,02,1.80
2010,01,26,07,03,1.70
2010,01,26,07,04,1.60
2010,01,26,07,05,1.50
2010,01,26,07,06,1.40
2010,01,26,07,07,1.30
2010,01,26,07,08,1.30
2010,01,26,07,09,1.30
2010,01,26,07,10,1.30
2010,01,26,07,11,1.30
2010,01,26,07,12,1.20
2010,01,26,07,13,1.20
2010,01,26,07,14,1.30
2010,01,26,07,15,1.30
2010,01,26,07,16,1.30
2010,01,26,07,17,1.30
2010,01,26,07,18,1.30
2010,01,26,07,19,1.40
2010,01,26,07,20,1.40
2010,01,26,07,21,1.40
2010,01,26,07,22,1.50
2010,01,26,07,23,1.50
2010,01,26,07,24,1.50
2010,01,26,07,25,1.50
2010,01,26,07,26,1.40
2010,01,26,07,27,1.40
2010,01,26,07,28,1.40
2010,01,26,07,29,1.30
2010,01,26,07,30,1.30
2010,01,26,07,31,1.30
2010,01,26,07,32,1.30
2010,01,26,07,33,1.20
2010,01,26,07,34,1.10
2010,01,26,07,35,1.10
2010,01,26,07,36,1.10
2010,01,26,07,37,1.00
2010,01,26,07,38,0.90
2010,01,26,07,39,0.90
2010,01,26,07,40,0.90
2010,01,26,07,41,0.90
2010,01,26,07,42,0.80
2010,01,26,07,43,0.80
2010,01,26,07,44,0.90
2010,01,26,07,45,0.90
2010,01,26,07,46,0.90
2010,01,26,07,47,1.00
2010,01,26,07,48,1.00
2010,01,26,07,49,1.00
2010,01,26,07,50,1.10
2010,01,26,07,51,1.10
2010,01,26,07,52,1.10
2010,01,26,07,53,1.00
2010,01,26,07,54,1.00
2010,01,26,07,55,1.00
2010,01,26,07,56,1.00
2010,01,26,07,57,1.00
2010,01,26,07,58,1.00
2010,01,26,07,59,1.00
2010,01,26,08,00,1.00
2010,01,26,08,01,1.00
2010,01,26,08,02,1.00
2010,01,26,08,03,1.10
2010,01,26,08,04,1.10
2010,01,26,08,05,1.10
2010,01,26,08,06,1.10
2010,01,26,08,07,1.20
2010,01,26,08,08,1.20
2010,01,26,08,09,1.20
2010,01,26,08,10,1.30
2010,01,26,08,11,1.30
2010,01,26,08,12,1.30
2010,01,26,08,13,1.30
2010,01,26,08,14,1.30
2010,01,26,08,15,1.30
2010,01,26,08,16,1.30
2010,01,26,08,17,1.30
2010,01,26,08,18,1.30
2010,01,26,08,19,1.30
2010,01,26,08,20,1.30
2010,01,26,08,21,1.30
2010,01,26,08,22,1.20
2010,01,26,08,23,1.20
2010,01,26,08,24,1.20
2010,01,26,08,25,1.10
2010,01,26,08,26,1.10
2010,01,26,08,27,1.10
2010,01,26,08,28,1.10
2010,01,26,08,29,1.10
2010,01,26,08,30,1.10
2010,01,26,08,31,1.10
2010,01,26,08,32,1.10
2010,01,26,08,33,1.10
2010,01,26,08,34,1.10
2010,01,26,08,35,1.10
2010,01,26,08,36,1.10
2010,01,26,08,37,1.20
2010,01,26,08,38,1.20
2010,01,26,08,39,1.20
2010,01,26,08,40,1.20
2010,01,26,08,41,1.20
2010,01,26,08,42,1.20
2010,01,26,08,43,1.20
2010,01,26,08,44,1.20
2010,01,26,08,45,1.20
2010,01,26,08,46,1.20
2010,01,26,08,47,1.20
2010,01,26,08,48,1.30
2010,01,26,08,49,1.30
2010,01,26,08,50,1.30
2010,01,26,08,51,1.30
2010,01,26,08,52,1.30
2010,01,26,08,53,1.30
2010,01,26,08,54,1.30
2010,01,26,08,55,1.30
2010,01,26,08,56,1.30
2010,01,26,08,57,1.30
2010,01,26,08,58,1.30
2010,01,26,08,59,1.30
2010,01,26,09,00,1.30
2010,01,26,09,01,1.40
2010,01,26,09,02,1.50
2010,01,26,09,03,1.60
2010,01,26,09,04,1.60
2010,01,26,09,05,1.70
2010,01,26,09,06,1.70
2010,01,26,09,07,1.80
2010,01,26,09,08,1.80
2010,01,26,09,09,1.80
2010,01,26,09,10,1.90
2010,01,26,09,11,1.90
2010,01,26,09,12,1.90
2010,01,26,09,13,1.90
2010,01,26,09,14,2.00
2010,01,26,09,15,2.00
2010,01,26,09,16,2.10
2010,01,26,09,17,2.20
2010,01,26,09,18,2.30
2010,01,26,09,19,2.40
2010,01,26,09,20,2.50
2010,01,26,09,21,2.60
2010,01,26,09,22,2.80
2010,01,26,09,23,2.90
2010,01,26,09,24,3.00
2010,01,26,09,25,3.10
2010,01,26,09,26,3.20
2010,01,26,09,27,3.30
2010,01,26,09,28,3.40
2010,01,26,09,29,3.50
2010,01,26,09,30,3.60
2010,01,26,09,31,3.60
2010,01,26,09,32,3.70
2010,01,26,09,33,3.80
2010,01,26,09,34,3.80
2010,01,26,09,35,4.00
2010,01,26,09,36,4.10
2010,01,26,09,37,4.20
2010,01,26,09,38,4.20
2010,01,26,09,39,4.30
2010,01,26,09,40,4.50
2010,01,26,09,41,4.60
2010,01,26,09,42,4.70
2010,01,26,09,43,4.90
2010,01,26,09,44,5.00
2010,01,26,09,45,5.10
2010,01,26,09,46,5.30
2010,01,26,09,47,5.50
2010,01,26,09,48,5.70
2010,01,26,09,49,5.90
2010,01,26,09,50,6.00
2010,01,26,09,51,6.20
2010,01,26,09,52,6.20
2010,01,26,09,53,6.20
2010,01,26,09,54,6.30
2010,01,26,09,55,6.30
2010,01,26,09,56,6.20
2010,01,26,09,57,6.20
2010,01,26,09,58,6.10
2010,01,26,09,59,6.10
2010,01,26,10,00,6.10
2010,01,26,10,01,6.20
2010,01,26,10,02,6.20
2010,01,26,10,03,6.30
2010,01,26,10,04,6.40
2010,01,26,10,05,6.60
2010,01,26,10,06,6.70
2010,01,26,10,07,6.80
2010,01,26,10,08,6.90
2010,01,26,10,09,7.00
2010,01,26,10,10,7.10
2010,01,26,10,11,7.20
2010,01,26,10,12,7.20
2010,01,26,10,13,7.20
2010,01,26,10,14,7.20
2010,01,26,10,15,7.20
2010,01,26,10,16,7.20
2010,01,26,10,17,7.10
2010,01,26,10,18,7.00
2010,01,26,10,19,7.00
2010,01,26,10,20,7.00
2010,01,26,10,21,6.90
2010,01,26,10,22,6.90
2010,01,26,10,23,6.90
2010,01,26,10,24,6.90
2010,01,26,10,25,7.00
2010,01,26,10,26,7.00
2010,01,26,10,27,7.00
2010,01,26,10,28,7.10
2010,01,26,10,29,7.10
2010,01,26,10,30,7.10
2010,01,26,10,31,7.10
2010,01,26,10,32,7.10
2010,01,26,10,33,7.20
2010,01,26,10,34,7.20
2010,01,26,10,35,7.20
2010,01,26,10,36,7.20
2010,01,26,10,37,7.20
2010,01,26,10,38,7.20
2010,01,26,10,39,7.20
2010,01,26,10,40,7.20
2010,01,26,10,41,7.20
2010,01,26,10,42,7.20
2010,01,26,10,43,7.20
2010,01,26,10,44,7.20
2010,01,26,10,45,7.20
2010,01,26,10,46,7.20
2010,01,26,10,47,7.30
2010,01,26,10,48,7.30
2010,01,26,10,49,7.30
2010,01,26,10,50,7.20
2010,01,26,10,51,7.20
2010,01,26,10,52,7.20
2010,01,26,10,53,7.20
2010,01,26,10,54,7.20
2010,01,26,10,55,7.20
2010,01,26,10,56,7.20
2010,01,26,10,57,7.30
2010,01,26,10,58,7.30
2010,01,26,10,59,7.30
2010,01,26,11,00,7.40
2010,01,26,11,01,7.40
2010,01,26,11,02,7.40
2010,01,26,11,03,7.40
2010,01,26,11,04,7.50
2010,01,26,11,05,7.50
2010,01,26,11,06,7.50
2010,01,26,11,07,7.50
2010,01,26,11,08,7.60
2010,01,26,11,09,7.60
2010,01,26,11,10,7.60
2010,01,26,11,11,7.60
2010,01,26,11,12,7.70
2010,01,26,11,13,7.70
2010,01,26,11,14,7.70
2010,01,26,11,15,7.70
2010,01,26,11,16,7.70
2010,01,26,11,17,7.80
2010,01,26,11,18,7.80
2010,01,26,11,19,7.90
2010,01,26,11,20,7.90
2010,01,26,11,21,7.90
2010,01,26,11,22,7.90
2010,01,26,11,23,7.90
2010,01,26,11,24,8.00
2010,01,26,11,25,8.00
2010,01,26,11,26,8.00
2010,01,26,11,27,8.10
2010,01,26,11,28,8.10
2010,01,26,11,29,8.10
2010,01,26,11,30,8.10
2010,01,26,11,31,8.20
2010,01,26,11,32,8.20
2010,01,26,11,33,8.20
2010,01,26,11,34,8.20
2010,01,26,11,35,8.30
2010,01,26,11,36,8.30
2010,01,26,11,37,8.30
2010,01,26,11,38,8.30
2010,01,26,11,39,8.30
2010,01,26,11,40,8.30
2010,01,26,11,41,8.30
2010,01,26,11,42,8.30
2010,01,26,11,43,8.40
2010,01,26,11,44,8.40
2010,01,26,11,45,8.40
2010,01,26,11,46,8.40
2010,01,26,11,47,8.50
2010,01,26,11,48,8.50
2010,01,26,11,49,8.60
2010,01,26,11,50,8.60
2010,01,26,11,51,8.60
2010,01,26,11,52,8.60
2010,01,26,11,53,8.60
2010,01,26,11,54,8.70
2010,01,26,11,55,8.70
2010,01,26,11,56,8.70
2010,01,26,11,57,8.70
2010,01,26,11,58,8.70
2010,01,26,11,59,8.70
2010,01,26,12,00,8.70
2010,01,26,12,01,8.70
2010,01,26,12,02,8.70
2010,01,26,12,03,8.80
2010,01,26,12,04,8.80
2010,01,26,12,05,8.80
2010,01,26,12,06,8.80
2010,01,26,12,07,8.80
2010,01,26,12,08,8.80
2010,01,26,12,09,8.80
2010,01,26,12,10,8.80
2010,01,26,12,11,8.80
2010,01,26,12,12,8.90
2010,01,26,12,13,8.80
2010,01,26,12,14,8.80
2010,01,26,12,15,8.80
2010,01,26,12,16,8.80
2010,01,26,12,17,8.80
2010,01,26,12,18,8.80
2010,01,26,12,19,8.80
2010,01,26,12,20,8.80
2010,01,26,12,21,8.90
2010,01,26,12,22,8.90
2010,01,26,12,23,8.90
2010,01,26,12,24,8.90
2010,01,26,12,25,8.90
2010,01,26,12,26,8.90
2010,01,26,12,27,9.00
2010,01,26,12,28,9.00
2010,01,26,12,29,9.00
2010,01,26,12,30,9.10
2010,01,26,12,31,9.10
2010,01,26,12,32,9.10
2010,01,26,12,33,9.10
2010,01,26,12,34,9.10
2010,01,26,12,35,9.10
2010,01,26,12,36,9.10
2010,01,26,12,37,9.10
2010,01,26,12,38,9.10
2010,01,26,12,39,9.20
2010,01,26,12,40,9.20
2010,01,26,12,41,9.20
2010,01,26,12,42,9.20
2010,01,26,12,43,9.20
2010,01,26,12,44,9.10
2010,01,26,12,45,9.20
2010,01,26,12,46,9.20
2010,01,26,12,47,9.20
2010,01,26,12,48,9.20
2010,01,26,12,49,9.20
2010,01,26,12,50,9.20
2010,01,26,12,51,9.20
2010,01,26,12,52,9.30
2010,01,26,12,53,9.30
2010,01,26,12,54,9.30
2010,01,26,12,55,9.20
2010,01,26,12,56,9.20
2010,01,26,12,57,9.20
2010,01,26,12,58,9.30
2010,01,26,12,59,9.30
2010,01,26,13,00,9.30
2010,01,26,13,01,9.30
2010,01,26,13,02,9.30
2010,01,26,13,03,9.30
2010,01,26,13,04,9.30
2010,01,26,13,05,9.30
2010,01,26,13,06,9.30
2010,01,26,13,07,9.20
2010,01,26,13,08,9.20
2010,01,26,13,09,9.10
2010,01,26,13,10,9.10
2010,01,26,13,11,9.20
2010,01,26,13,12,9.20
2010,01,26,13,13,9.20
2010,01,26,13,14,9.20
2010,01,26,13,15,9.20
2010,01,26,13,16,9.30
2010,01,26,13,17,9.30
2010,01,26,13,18,9.30
2010,01,26,13,19,9.30
2010,01,26,13,20,9.30
2010,01,26,13,21,9.20
2010,01,26,13,22,9.20
2010,01,26,13,23,9.20
2010,01,26,13,24,9.20
2010,01,26,13,25,9.20
2010,01,26,13,26,9.20
2010,01,26,13,27,9.30
2010,01,26,13,28,9.20
2010,01,26,13,29,9.30
2010,01,26,13,30,9.30
2010,01,26,13,31,9.30
2010,01,26,13,32,9.40
2010,01,26,13,33,9.40
2010,01,26,13,34,9.40
2010,01,26,13,35,9.50
2010,01,26,13,36,9.60
2010,01,26,13,37,9.60
2010,01,26,13,38,9.70
2010,01,26,13,39,9.80
2010,01,26,13,40,9.80
2010,01,26,13,41,9.90
2010,01,26,13,42,9.90
2010,01,26,13,43,9.90
2010,01,26,13,44,9.90
2010,01,26,13,45,9.90
2010,01,26,13,46,9.80
2010,01,26,13,47,9.80
2010,01,26,13,48,9.80
2010,01,26,13,49,9.70
2010,01,26,13,50,9.70
2010,01,26,13,51,9.60
2010,01,26,13,52,9.60
2010,01,26,13,53,9.60
2010,01,26,13,54,9.60
2010,01,26,13,55,9.60
2010,01,26,13,56,9.60
2010,01,26,13,57,9.60
2010,01,26,13,58,9.60
2010,01,26,13,59,9.60
2010,01,26,14,00,9.60
2010,01,26,14,01,9.60
2010,01,26,14,02,9.60
2010,01,26,14,03,9.60
2010,01,26,14,04,9.70
2010,01,26,14,05,9.70
2010,01,26,14,06,9.70
2010,01,26,14,07,9.70
2010,01,26,14,08,9.70
2010,01,26,14,09,9.70
2010,01,26,14,10,9.70
2010,01,26,14,11,9.70
2010,01,26,14,12,9.70
2010,01,26,14,13,9.70
2010,01,26,14,14,9.70
2010,01,26,14,15,9.70
2010,01,26,14,16,9.70
2010,01,26,14,17,9.70
2010,01,26,14,18,9.70
2010,01,26,14,19,9.70
2010,01,26,14,20,9.70
2010,01,26,14,21,9.70
2010,01,26,14,22,9.70
2010,01,26,14,23,9.70
2010,01,26,14,24,9.70
2010,01,26,14,25,9.70
2010,01,26,14,26,9.70
2010,01,26,14,27,9.80
2010,01,26,14,28,9.80
2010,01,26,14,29,9.80
2010,01,26,14,30,9.80
2010,01,26,14,31,9.80
2010,01,26,14,32,9.80
2010,01,26,14,33,9.80
2010,01,26,14,34,9.80
2010,01,26,14,35,9.80
2010,01,26,14,36,9.80
2010,01,26,14,37,9.80
2010,01,26,14,38,9.80
2010,01,26,14,39,9.80
2010,01,26,14,40,9.80
2010,01,26,14,41,9.80
2010,01,26,14,42,9.80
2010,01,26,14,43,9.80
2010,01,26,14,44,9.80
2010,01,26,14,45,9.70
2010,01,26,14,46,9.70
2010,01,26,14,47,9.70
2010,01,26,14,48,9.70
2010,01,26,14,49,9.70
2010,01,26,14,50,9.60
2010,01,26,14,51,9.60
2010,01,26,14,52,9.70
2010,01,26,14,53,9.70
2010,01,26,14,54,9.70
2010,01,26,14,55,9.70
2010,01,26,14,56,9.70
2010,01,26,14,57,9.80
2010,01,26,14,58,9.80
2010,01,26,14,59,9.90
2010,01,26,15,00,9.90
2010,01,26,15,01,9.90
2010,01,26,15,02,9.90
2010,01,26,15,03,9.90
2010,01,26,15,04,9.90
2010,01,26,15,05,9.90
2010,01,26,15,06,9.90
2010,01,26,15,07,9.90
2010,01,26,15,08,9.90
2010,01,26,15,09,9.90
2010,01,26,15,10,10.00
2010,01,26,15,11,10.00
2010,01,26,15,12,10.00
2010,01,26,15,13,10.00
2010,01,26,15,14,9.90
2010,01,26,15,15,9.80
2010,01,26,15,16,9.80
2010,01,26,15,17,9.70
2010,01,26,15,18,9.60
2010,01,26,15,19,9.60
2010,01,26,15,20,9.60
2010,01,26,15,21,9.50
2010,01,26,15,22,9.40
2010,01,26,15,23,9.40
2010,01,26,15,24,9.40
2010,01,26,15,25,9.30
2010,01,26,15,26,9.40
2010,01,26,15,27,9.40
2010,01,26,15,28,9.40
2010,01,26,15,29,9.50
2010,01,26,15,30,9.50
2010,01,26,15,31,9.50
2010,01,26,15,32,9.50
2010,01,26,15,33,9.60
2010,01,26,15,34,9.60
2010,01,26,15,35,9.60
2010,01,26,15,36,9.50
2010,01,26,15,37,9.40
2010,01,26,15,38,9.40
2010,01,26,15,39,9.30
2010,01,26,15,40,9.30
2010,01,26,15,41,9.20
2010,01,26,15,42,9.10
2010,01,26,15,43,9.10
2010,01,26,15,44,9.00
2010,01,26,15,45,9.00
2010,01,26,15,46,9.00
2010,01,26,15,47,9.00
2010,01,26,15,48,8.90
2010,01,26,15,49,8.90
2010,01,26,15,50,8.90
2010,01,26,15,51,8.80
2010,01,26,15,52,8.80
2010,01,26,15,53,8.80
2010,01,26,15,54,8.80
2010,01,26,15,55,8.80
2010,01,26,15,56,8.70
2010,01,26,15,57,8.70
2010,01,26,15,58,8.70
2010,01,26,15,59,8.70
2010,01,26,16,00,8.70
2010,01,26,16,01,8.60
2010,01,26,16,02,8.60
2010,01,26,16,03,8.50
2010,01,26,16,04,8.50
2010,01,26,16,05,8.40
2010,01,26,16,06,8.40
2010,01,26,16,07,8.40
2010,01,26,16,08,8.30
2010,01,26,16,09,8.30
2010,01,26,16,10,8.30
2010,01,26,16,11,8.30
2010,01,26,16,12,8.30
2010,01,26,16,13,8.20
2010,01,26,16,14,8.20
2010,01,26,16,15,8.20
2010,01,26,16,16,8.20
2010,01,26,16,17,8.20
2010,01,26,16,18,8.20
2010,01,26,16,19,8.20
2010,01,26,16,20,8.20
2010,01,26,16,21,8.10
2010,01,26,16,22,8.10
2010,01,26,16,23,8.10
2010,01,26,16,24,8.10
2010,01,26,16,25,8.10
2010,01,26,16,26,8.00
2010,01,26,16,27,8.00
2010,01,26,16,28,8.00
2010,01,26,16,29,8.00
2010,01,26,16,30,8.00
2010,01,26,16,31,8.00
2010,01,26,16,32,8.00
2010,01,26,16,33,8.00
2010,01,26,16,34,8.00
2010,01,26,16,35,8.00
2010,01,26,16,36,8.00
2010,01,26,16,37,8.00
2010,01,26,16,38,7.90
2010,01,26,16,39,7.90
2010,01,26,16,40,7.90
2010,01,26,16,41,7.90
2010,01,26,16,42,7.90
2010,01,26,16,43,7.90
2010,01,26,16,44,7.90
2010,01,26,16,45,7.90
2010,01,26,16,46,7.80
2010,01,26,16,47,7.80
2010,01,26,16,48,7.80
2010,01,26,16,49,7.80
2010,01,26,16,50,7.80
2010,01,26,16,51,7.80
2010,01,26,16,52,7.80
2010,01,26,16,53,7.80
2010,01,26,16,54,7.80
2010,01,26,16,55,7.80
2010,01,26,16,56,7.80
2010,01,26,16,57,7.70
2010,01,26,16,58,7.70
2010,01,26,16,59,7.70
2010,01,26,17,00,7.70
2010,01,26,17,01,7.70
2010,01,26,17,02,7.70
2010,01,26,17,03,7.70
2010,01,26,17,04,7.70
2010,01,26,17,05,7.70
2010,01,26,17,06,7.70
2010,01,26,17,07,7.60
2010,01,26,17,08,7.60
2010,01,26,17,09,7.60
2010,01,26,17,10,7.60
2010,01,26,17,11,7.60
2010,01,26,17,12,7.60
2010,01,26,17,13,7.50
2010,01,26,17,14,7.50
2010,01,26,17,15,7.50
2010,01,26,17,16,7.50
2010,01,26,17,17,7.40
2010,01,26,17,18,7.40
2010,01,26,17,19,7.40
2010,01,26,17,20,7.40
2010,01,26,17,21,7.40
2010,01,26,17,22,7.30
2010,01,26,17,23,7.30
2010,01,26,17,24,7.30
2010,01,26,17,25,7.30
2010,01,26,17,26,7.20
2010,01,26,17,27,7.20
2010,01,26,17,28,7.20
2010,01,26,17,29,7.20
2010,01,26,17,30,7.20
2010,01,26,17,31,7.20
2010,01,26,17,32,7.20
2010,01,26,17,33,7.20
2010,01,26,17,34,7.20
2010,01,26,17,35,7.20
2010,01,26,17,36,7.20
2010,01,26,17,37,7.20
2010,01,26,17,38,7.20
2010,01,26,17,39,7.20
2010,01,26,17,40,7.20
2010,01,26,17,41,7.20
2010,01,26,17,42,7.20
2010,01,26,17,43,7.20
2010,01,26,17,44,7.20
2010,01,26,17,45,7.20
2010,01,26,17,46,7.10
2010,01,26,17,47,7.10
2010,01,26,17,48,7.10
2010,01,26,17,49,7.10
2010,01,26,17,50,7.10
2010,01,26,17,51,7.10
2010,01,26,17,52,7.10
2010,01,26,17,53,7.10
2010,01,26,17,54,7.10
2010,01,26,17,55,7.10
2010,01,26,17,56,7.00
2010,01,26,17,57,7.00
2010,01,26,17,58,7.00
2010,01,26,17,59,7.00
2010,01,26,18,00,7.00
2010,01,26,18,01,6.90
2010,01,26,18,02,6.90
2010,01,26,18,03,6.90
2010,01,26,18,04,6.90
2010,01,26,18,05,6.80
2010,01,26,18,06,6.80